[Iaude] MPEC R179: 2023 RR6 [a=1.50,e=0.33,i=9.9,H=27.0]
    mpec at marsden.cfa.harvard.edu 
    mpec at marsden.cfa.harvard.edu
       
    Wed Sep 13 12:33:26 EDT 2023
    
    
  
M.P.E.C. 2023-R179                           Issued 2023 September 13, 16:32 UT
     The Minor Planet Electronic Circulars contain information on unusual
         minor planets, routine data on comets and natural satellites,
         and occasional editorial announcements.  They are published
    on behalf of Division F of the International Astronomical Union by the
          Minor Planet Center, Smithsonian Astrophysical Observatory,
                          Cambridge, MA 02138, U.S.A.
			  
             Prepared using the Tamkin Foundation Computer Network
                              MPC at CFA.HARVARD.EDU
            URL https://www.minorplanetcenter.net/    ISSN 1523-6714
                                    2023 RR6                                    
Observations:
     K23R06R*5C2023 09 11.88428 23 12 37.98 +10 29 05.6          22.0 GXER179033
     K23R06R 5C2023 09 11.88714 23 12 39.45 +10 28 49.2          21.0 GXER179033
     K23R06R 5C2023 09 11.89000 23 12 40.99 +10 28 33.1          21.7 GXER179033
     K23R06R 1C2023 09 11.92780 23 13 00.93 +10 24 57.4          21.5 VXER179033
     K23R06R 1C2023 09 11.92936 23 13 01.80 +10 24 48.3          21.2 VXER179033
     K23R06R 1C2023 09 11.93093 23 13 02.67 +10 24 39.0          21.3 VXER179033
     K23R06R 1C2023 09 11.93249 23 13 03.43 +10 24 30.1          20.8 VXER179033
     K23R06R 1C2023 09 11.93406 23 13 04.27 +10 24 21.5          21.4 VXER179033
     K23R06R 1C2023 09 12.03064 23 13 55.56 +10 14 59.2          21.7 VXER179033
     K23R06R 1C2023 09 12.03330 23 13 57.02 +10 14 43.8          22.0 VXER179033
     K23R06R 1C2023 09 12.03464 23 13 57.69 +10 14 36.3          21.9 VXER179033
     K23R06R 1C2023 09 12.03597 23 13 58.42 +10 14 28.6          21.3 VXER179033
     K23R06R 1C2023 09 12.03736 23 13 59.13 +10 14 20.3          21.7 VXER179033
     K23R06R 1C2023 09 12.85417 23 22 14.83 +08 50 18.1          21.8 VXER179033
     K23R06R 1C2023 09 13.08015 23 24 28.84 +08 25 25.6          22.1 VXER179033
     K23R06R 1C2023 09 13.08161 23 24 29.73 +08 25 16.3          22.0 VXER179033
     K23R06R 1C2023 09 13.08308 23 24 30.61 +08 25 06.4          21.7 VXER179033
     K23R06R KC2023 09 13.25305423 26 24.27 +08 06 23.3          22.0 VuER179H21
     K23R06R KC2023 09 13.26006823 26 28.48 +08 05 35.4          22.1 VuER179H21
     K23R06R KC2023 09 13.26147123 26 29.32 +08 05 25.7          21.7 VuER179H21
     K23R06R KC2023 09 13.26474523 26 31.25 +08 05 02.9          22.0 VuER179H21
Observer details:
033 Karl Schwarzschild Observatory, Tautenburg.  Observers C. Demeautis, B.
    Stecklum, S. Melnikov, F. Ludwig, C. Hoegner, M. Hartmann.  Measurers C.
    Demeautis, B. Stecklum.  1.34-m f/3 Schmidt + CCD.
H21 Astronomical Research Observatory, Westfield.  Observer R. Holmes.
    Measurers T. Linder, R. Holmes, L. Horn.  0.81-m f/4.0 astrograph + CCD.
Orbital elements:
2023 RR6                                                 Earth MOID = 0.0378 AU
Epoch 2023 Sept. 13.0 TT = JDT 2460200.5                Veres                   
M 341.42906              (2000.0)            P               Q                  
n   0.53835656     Peri.  213.90360     +0.88789763     -0.45961236             
a   1.4965436      Node   173.36647     +0.45094922     +0.86100033             
e   0.3269675      Incl.    9.89758     +0.09100875     +0.21779558             
P   1.83           H   27.00          G   0.15           U   9                  
Residuals in seconds of arc
230911 033  0.1-  0.2+    230911 033  0.1-  0.3+    230913 033  0.0   0.4-
230911 033  0.8-  0.0     230912 033  0.5+  0.4-    230913 033  0.0   0.1+
230911 033  0.4-  0.2+    230912 033  0.9+  0.2-    230913 033  0.2-  0.2+
230911 033  0.6-  0.3+    230912 033  0.2+  0.2+    230913 H21  0.0   0.1-
230911 033  0.1+  0.2+    230912 033  0.5+  0.4+    230913 H21  0.2+  0.2+
230911 033  0.7+  0.1-    230912 033  0.1-  0.2+    230913 H21  0.2+  0.1+
230911 033  0.2-  0.1-    230912 033  0.1-  0.3-    230913 H21  0.3-  0.2-
Ephemeris:
2023 RR6                 a,e,i = 1.50, 0.33, 10                  q = 1.0072
Date    TT    R. A. (2000) Decl.     Delta      r    Elong.  Phase     V
2023 08 14    21 38 40.1 +21 00 41   0.1918  1.1743   144.3    30.2    25.1
...
2023 08 29    22 01 30.2 +20 27 59   0.1170  1.1122   149.2    27.7    23.8
...
2023 09 06    22 31 02.2 +16 58 22   0.08192 1.0833   155.5    22.7    22.8
...
2023 09 12    23 13 40.2 +10 19 40   0.05913 1.0640   165.1    14.0    21.8
2023 09 13    23 23 41.8 +08 36 15   0.05583 1.0610   167.3    12.1    21.6
2023 09 14    23 34 49.6 +06 38 28   0.05273 1.0581   169.4    10.1    21.4
...
2023 09 20    01 09 59.2 -10 39 15   0.04047 1.0420   157.4    21.7    21.2
...
2023 09 28    04 00 46.6 -32 01 53   0.04800 1.0250   117.1    60.5    22.6
...
2023 10 13    06 32 10.6 -36 25 03   0.09696 1.0080    93.2    81.3    24.8
M. P. C. Staff               (C) Copyright 2023 MPC           M.P.E.C. 2023-R179
    
    
More information about the Iaude
mailing list